Starlink 32122

operational
NORAD ID: 60285 Int'l Des: 2024-132 Owner: SPXS Country: US Constellation: starlink
LEOCIRCULAR

About Starlink 32122

Description loading...

Live Position

Loading 3D Globe...

Upcoming Passes

Altitude History

Altitude vs Time

uPlot chart will show altitude changes over time

Two-Line Element Set

1 60285U 24132H 25306.21891294 .00000725 00000-0 36608-4 0 9996
2 60285 53.1614 284.5512 0001468 80.8849 279.2318 15.30195663 72040
Epoch: Nov 2, 2025 • Age: 39 hours

Current Status

Altitude 489.1 km
Velocity 7.62 km/s
Sub-Earth Point -39.88°S, 108°W
Launch Date Jul 28, 2024
Age 1.2 years
Type internet

Technical Details

Classification Payload
Mass 730.00 kg
Dry Mass 700.00 kg
Total Mass 730.00 kg
Length 0.30 m
Diameter 4.10 m
Span 29.00 m
Shape Box + pan
Manufacturer SPXS
Bus Type Starlink V2M
Phase Status In Orbit
Owner/State SPXS/US

Large Constellations

Loading constellations...